• Em Portugal
  • Lista de países
  • Para 7 dias
  • Temperatura da água
  • Mapas de satélite
  • Mapa do tempo
  • Widgets de tempo
  • user-avatar
    Iniciar Sessão

    Previsão horária em Kapan

    Hoje, 26 Setembro, Terça-feira

    Tempo Temperatura Precipitação Vento Pressão Humidade
    00:00 +19°C° 0 mm 1 m/s 687 mmHg 82%
    01:00 +18°C° 0 mm 1 m/s 687 mmHg 82%
    02:00 +18°C° 0 mm 1 m/s 687 mmHg 83%
    03:00 +18°C° 0 mm 1 m/s 687 mmHg 83%
    04:00 +16°C° 0 mm 1 m/s 687 mmHg 82%
    05:00 +16°C° 0 mm 1 m/s 687 mmHg 82%
    06:00 +16°C° 0 mm 1 m/s 686 mmHg 81%
    07:00 +19°C° 0 mm 1 m/s 687 mmHg 71%
    08:00 +20°C° 0 mm 2 m/s 687 mmHg 61%
    09:00 +21°C° 0 mm 2 m/s 687 mmHg 51%
    10:00 +23°C° 0 mm 2 m/s 687 mmHg 47%
    11:00 +25°C° 0 mm 3 m/s 687 mmHg 43%
    12:00 +26°C° 0 mm 3 m/s 687 mmHg 40%
    13:00 +26°C° 0 mm 3 m/s 687 mmHg 41%
    14:00 +25°C° 0 mm 3 m/s 686 mmHg 42%
    15:00 +25°C° 0 mm 3 m/s 686 mmHg 43%
    16:00 +24°C° 0 mm 3 m/s 686 mmHg 52%
    17:00 +21°C° 0 mm 3 m/s 686 mmHg 61%
    18:00 +19°C° 0 mm 3 m/s 685 mmHg 70%
    19:00 +19°C° 0 mm 3 m/s 685 mmHg 74%
    20:00 +18°C° 0 mm 3 m/s 686 mmHg 77%
    21:00 +18°C° 0 mm 2 m/s 686 mmHg 81%
    22:00 +17°C° 0 mm 2 m/s 686 mmHg 82%
    23:00 +17°C° 0 mm 2 m/s 686 mmHg 83%

    Amanhã, 27 Setembro, Quarta-feira

    Tempo Temperatura Precipitação Vento Pressão Humidade
    00:00 +17°C° 0 mm 2 m/s 686 mmHg 84%
    01:00 +17°C° 0,1 mm 2 m/s 686 mmHg 84%
    02:00 +16°C° 0,1 mm 2 m/s 685 mmHg 84%
    03:00 +16°C° 0,1 mm 2 m/s 685 mmHg 85%
    04:00 +16°C° 0,1 mm 2 m/s 685 mmHg 85%
    05:00 +16°C° 0,1 mm 1 m/s 685 mmHg 85%
    06:00 +16°C° 0,1 mm 1 m/s 685 mmHg 86%
    07:00 +17°C° 0 mm 2 m/s 686 mmHg 78%
    08:00 +19°C° 0 mm 2 m/s 686 mmHg 70%
    09:00 +20°C° 0 mm 2 m/s 686 mmHg 62%
    10:00 +21°C° 0 mm 3 m/s 686 mmHg 57%
    11:00 +22°C° 0 mm 3 m/s 686 mmHg 53%
    12:00 +23°C° 0 mm 4 m/s 686 mmHg 49%
    13:00 +23°C° 0 mm 4 m/s 685 mmHg 52%
    14:00 +22°C° 0 mm 4 m/s 685 mmHg 55%
    15:00 +22°C° 0 mm 4 m/s 684 mmHg 58%
    16:00 +20°C° 0 mm 3 m/s 684 mmHg 65%
    17:00 +19°C° 0 mm 3 m/s 684 mmHg 71%
    18:00 +17°C° 0 mm 3 m/s 684 mmHg 78%
    19:00 +17°C° 0 mm 3 m/s 684 mmHg 80%
    20:00 +16°C° 0 mm 3 m/s 684 mmHg 82%
    21:00 +16°C° 0 mm 3 m/s 685 mmHg 83%
    22:00 +14°C° 0 mm 3 m/s 685 mmHg 84%
    23:00 +14°C° 0 mm 3 m/s 685 mmHg 84%

    Depois de amanhã, 28 Setembro, Quinta-feira

    Tempo Temperatura Precipitação Vento Pressão Humidade
    00:00 +14°C° 0 mm 3 m/s 685 mmHg 84%
    01:00 +14°C° 0 mm 3 m/s 685 mmHg 85%
    02:00 +15°C° 0 mm 2 m/s 685 mmHg 86%
    03:00 +14°C° 0 mm 2 m/s 685 mmHg 86%
    04:00 +14°C° 0 mm 2 m/s 685 mmHg 87%
    05:00 +14°C° 0 mm 2 m/s 685 mmHg 87%
    06:00 +14°C° 0 mm 2 m/s 685 mmHg 88%
    07:00 +15°C° 0 mm 2 m/s 685 mmHg 82%
    08:00 +16°C° 0 mm 2 m/s 686 mmHg 77%
    09:00 +17°C° 0 mm 3 m/s 686 mmHg 71%
    10:00 +18°C° 0 mm 3 m/s 686 mmHg 69%
    11:00 +18°C° 0 mm 3 m/s 686 mmHg 66%
    12:00 +19°C° 0 mm 3 m/s 686 mmHg 63%
    13:00 +19°C° 0 mm 3 m/s 686 mmHg 65%
    14:00 +18°C° 0 mm 3 m/s 685 mmHg 67%
    15:00 +18°C° 0 mm 4 m/s 685 mmHg 70%
    16:00 +17°C° 0 mm 4 m/s 685 mmHg 74%
    17:00 +15°C° 0 mm 4 m/s 685 mmHg 79%
    18:00 +14°C° 0 mm 4 m/s 686 mmHg 84%
    19:00 +14°C° 0 mm 3 m/s 686 mmHg 85%
    20:00 +13°C° 0 mm 3 m/s 686 mmHg 87%
    21:00 +13°C° 0 mm 3 m/s 687 mmHg 88%
    22:00 +13°C° 0,1 mm 3 m/s 687 mmHg 87%
    23:00 +13°C° 0,1 mm 3 m/s 687 mmHg 87%

    29 Setembro, Sexta-feira

    Tempo Temperatura Precipitação Vento Pressão Humidade
    00:00 +13°C° 0,1 mm 3 m/s 687 mmHg 87%
    01:00 +13°C° 0 mm 2 m/s 687 mmHg 87%
    02:00 +13°C° 0 mm 2 m/s 687 mmHg 88%
    03:00 +13°C° 0 mm 2 m/s 687 mmHg 89%
    04:00 +13°C° 0 mm 2 m/s 687 mmHg 89%
    05:00 +13°C° 0 mm 2 m/s 687 mmHg 89%
    06:00 +13°C° 0 mm 2 m/s 687 mmHg 89%
    07:00 +14°C° 0 mm 2 m/s 688 mmHg 83%
    08:00 +15°C° 0 mm 2 m/s 688 mmHg 78%
    09:00 +16°C° 0 mm 2 m/s 688 mmHg 72%
    10:00 +17°C° 0 mm 3 m/s 688 mmHg 68%
    11:00 +18°C° 0 mm 3 m/s 687 mmHg 63%
    12:00 +19°C° 0 mm 3 m/s 687 mmHg 58%
    13:00 +19°C° 0 mm 3 m/s 687 mmHg 58%
    14:00 +19°C° 0 mm 3 m/s 686 mmHg 57%
    15:00 +20°C° 0 mm 3 m/s 686 mmHg 56%
    16:00 +18°C° 0 mm 3 m/s 686 mmHg 62%
    17:00 +17°C° 0 mm 3 m/s 685 mmHg 68%
    18:00 +16°C° 0 mm 3 m/s 685 mmHg 74%
    19:00 +14°C° 0 mm 3 m/s 685 mmHg 75%
    20:00 +15°C° 0 mm 2 m/s 685 mmHg 77%
    21:00 +15°C° 0 mm 2 m/s 685 mmHg 78%
    22:00 +14°C° 0 mm 2 m/s 685 mmHg 79%
    23:00 +14°C° 0 mm 2 m/s 685 mmHg 80%

    30 Setembro, Sábado

    Tempo Temperatura Precipitação Vento Pressão Humidade
    00:00 +14°C° 0 mm 2 m/s 684 mmHg 81%
    01:00 +14°C° 0 mm 2 m/s 684 mmHg 81%
    02:00 +14°C° 0 mm 2 m/s 684 mmHg 81%
    03:00 +13°C° 0 mm 1 m/s 684 mmHg 81%
    04:00 +13°C° 0 mm 1 m/s 684 mmHg 82%
    05:00 +13°C° 0 mm 1 m/s 684 mmHg 83%
    06:00 +13°C° 0 mm 1 m/s 684 mmHg 83%
    07:00 +15°C° 0 mm 2 m/s 684 mmHg 75%
    08:00 +17°C° 0 mm 2 m/s 684 mmHg 66%
    09:00 +19°C° 0 mm 2 m/s 685 mmHg 57%
    10:00 +20°C° 0,1 mm 3 m/s 684 mmHg 53%
    11:00 +22°C° 0,1 mm 3 m/s 684 mmHg 49%
    12:00 +23°C° 0,1 mm 4 m/s 683 mmHg 45%
    13:00 +23°C° 0,3 mm 4 m/s 683 mmHg 46%
    14:00 +23°C° 0,3 mm 4 m/s 682 mmHg 48%
    15:00 +23°C° 0,3 mm 4 m/s 682 mmHg 50%
    16:00 +21°C° 0,1 mm 4 m/s 682 mmHg 58%
    17:00 +19°C° 0,1 mm 3 m/s 682 mmHg 66%
    18:00 +18°C° 0,1 mm 3 m/s 681 mmHg 74%
    19:00 +17°C° 0 mm 2 m/s 682 mmHg 76%
    20:00 +18°C° 0 mm 1 m/s 682 mmHg 78%
    21:00 +16°C° 0 mm 1 m/s 683 mmHg 80%
    22:00 +16°C° 0 mm 1 m/s 683 mmHg 79%
    23:00 +16°C° 0 mm 1 m/s 683 mmHg 78%

    1 Outubro, Domingo

    Tempo Temperatura Precipitação Vento Pressão Humidade
    00:00 +16°C° 0 mm 1 m/s 683 mmHg 77%
    01:00 +16°C° 0 mm 1 m/s 683 mmHg 74%
    02:00 +16°C° 0 mm 1 m/s 683 mmHg 72%
    03:00 +15°C° 0 mm 1 m/s 683 mmHg 70%
    04:00 +15°C° 0 mm 1 m/s 683 mmHg 67%
    05:00 +15°C° 0 mm 1 m/s 683 mmHg 65%
    06:00 +15°C° 0 mm 1 m/s 684 mmHg 62%
    07:00 +18°C° 0 mm 2 m/s 684 mmHg 55%
    08:00 +20°C° 0 mm 2 m/s 685 mmHg 48%
    09:00 +23°C° 0 mm 2 m/s 686 mmHg 41%
    10:00 +24°C° 0 mm 2 m/s 686 mmHg 38%
    11:00 +25°C° 0 mm 3 m/s 686 mmHg 34%
    12:00 +27°C° 0 mm 3 m/s 686 mmHg 30%
    13:00 +27°C° 0 mm 3 m/s 685 mmHg 30%
    14:00 +27°C° 0 mm 3 m/s 685 mmHg 30%
    15:00 +26°C° 0 mm 3 m/s 684 mmHg 30%
    16:00 +25°C° 0 mm 3 m/s 684 mmHg 37%
    17:00 +23°C° 0 mm 2 m/s 684 mmHg 43%
    18:00 +21°C° 0 mm 1 m/s 684 mmHg 49%
    19:00 +20°C° 0 mm 1 m/s 684 mmHg 52%
    20:00 +20°C° 0 mm 1 m/s 684 mmHg 56%
    21:00 +19°C° 0 mm 1 m/s 684 mmHg 59%
    22:00 +18°C° 0 mm 1 m/s 684 mmHg 61%
    23:00 +18°C° 0 mm 1 m/s 684 mmHg 62%
    Mostrar mais